Statistiken

Seite 149 von 349 |< · · [146] [147] [148] [149] [150] [151] [152] · · >|

Die meistgelesenen Zitate

Nr. Zitat Pkte. Bew. Aufr. Mails Kom. Datum
7401 Greif ehrlich zu, eh dir die Hände gebunden werden. ... 1.3000 10 3490 0 2 26.08.05 00:00
7402 Zeit bringt Bescheid. ... 1.0000 3 3490 0 0 26.08.05 00:00
7403 Man kauft den Ochsen nicht teurer, weil er bunt ist. ... 0.2500 4 3490 0 18 26.08.05 00:00
7404 Dem Fisch den Köder, der Maus den Speck. ... 0.6667 6 3489 0 3 26.08.05 00:00
7405 Besser in die Faust als ins Gesicht lachen. ... -0.2857 14 3489 0 0 26.08.05 00:00
7406 Ehrlich macht reich, aber langsam geht's her. ... 0.0000 1 3488 0 0 26.08.05 00:00
7407 Schweig, Herz, und rede, Maul. ... 0.0000 1 3488 0 0 26.08.05 00:00
7408 Ich und der Esel sind zusammen die Trepp heruntergefallen. ... 0.2308 13 3487 1 0 26.08.05 00:00
7409 Zuviel Sorge zerbricht das Glas. ... 1.0000 3 3487 0 0 26.08.05 00:00
7410 Wohltun und übel hören ist königlich. ... 0.0000 1 3487 0 0 26.08.05 00:00
7411 Krieg hat viel Gaukelei. ... -0.1600 25 3487 0 0 26.08.05 00:00
7412 Soldatentod ist besser als Bettelbrot. ... 0.1000 10 3486 0 2 26.08.05 00:00
7413 Ein guter Hahn kräht auch zweimal. ... 0.0000 1 3485 1 3 26.08.05 00:00
7414 Der Vater muß dem Kinde den Namen geben. ... 0.0000 5 3485 0 0 26.08.05 00:00
7415 Gedanken sind zollfrei. ... 0.5714 14 3484 0 1 26.08.05 00:00
7416 Der Tod und die Kirche geben nichts zurück. ... -0.0952 21 3484 0 0 26.08.05 00:00
7417 Männer von der Zunft walten mit Unvernunft. ... -0.6667 3 3484 0 0 26.08.05 00:00
7418 Gott, Eltern und Lehrern kann man nie vergelten. ... 0.0000 4 3483 0 0 26.08.05 00:00
7419 Miß dein Glück nicht nach fremder Elle. ... 0.8462 13 3482 0 0 26.08.05 00:00
7420 Junger Heiliger, alter Teufel. ... 0.1667 6 3482 0 0 26.08.05 00:00
7421 Die Narren haben mehr Glück als Recht. ... 1.0000 4 3480 0 0 26.08.05 00:00
7422 Die Größe tut's nicht, sonst überliefe die Kuh den Hasen. ... 0.0000 1 3479 1 0 26.08.05 00:00
7423 Zeuge von Hörensagen gilt im Recht nicht. ... 0.9000 10 3479 0 0 26.08.05 00:00
7424 Je mehr Freiheit, je mehr Mutwille. ... -0.2500 8 3479 0 0 26.08.05 00:00
7425 So du lange lebst, so du alt wirst. ... -1.0000 4 3479 0 0 26.08.05 00:00
7426 Wer nicht vorwärts geht, der kommt zurück. ... 1.0000 3 3478 0 1 26.08.05 00:00
7427 Menschensinn ist Menschenleben. ... 0.4000 5 3478 0 0 26.08.05 00:00
7428 Arme Leute schlafen für wohl essen. ... 0.0000 3 3478 0 0 26.08.05 00:00
7429 Jung genug, schön genug. ... -1.0000 2 3477 0 0 26.08.05 00:00
7430 Mancher baut ein Haus Und muß zuerst hinaus. ... 0.0000 1 3476 2 0 26.08.05 00:00
7431 Allzeit gewinnen macht verdächtig, Allzeit ... 0.4000 5 3475 0 0 26.08.05 00:00
7432 Heirat der Alten ist ein Ladschreiben an den Totengräber. ... -0.5714 7 3475 0 0 26.08.05 00:00
7433 Fege vor deiner Tür, so brauchst du Besen genug. ... 1.9786 281 3474 1 0 26.08.05 00:00
7434 Kinderzeugen ist keine Zwangsarbeit. ... 1.4118 17 3474 0 0 26.08.05 00:00
7435 Alte Gewohnheit ist stärker als Brief und Siegel. ... 0.8750 8 3474 0 0 26.08.05 00:00
7436 Mit Geld Probiert man die Welt. ... 0.8667 15 3474 0 0 26.08.05 00:00
7437 Kommt das Schiff wohl zu Land, so war der Steuermann gut. ... 0.0000 3 3473 1 0 26.08.05 00:00
7438 Wozu jedermann den Schlüssel hat, das ist ... 0.5714 7 3473 0 0 26.08.05 00:00
7439 Wenn einem Ochsen die Haut wird abgezogen, ... 1.0000 8 3472 0 2 26.08.05 00:00
7440 Schöne Leute haben schöne Sachen. ... -0.5000 6 3471 0 16 26.08.05 00:00
7441 Vom Hecht den Schwanz, vom Karpfen den Kopf. ... -0.6667 6 3471 0 1 26.08.05 00:00
7442 Wer weiß, was der Abend bringt? ... -1.0000 3 3471 0 0 26.08.05 00:00
7443 Zum Freien gehört mehr als ein Paar Schuhe. ... -1.0000 2 3471 0 0 26.08.05 00:00
7444 Bei Weibern ist des Schwatzens hohe Schule. ... 1.6667 6 3469 1 0 26.08.05 00:00
7445 Ein Mann kann keinen Tanz machen. ... 1.4000 5 3469 0 0 26.08.05 00:00
7446 Daß viele irregehn, macht den Weg nicht richtig. ... 0.5000 4 3469 0 1 26.08.05 00:00
7447 Bei Mägdlein von achtzehn Jahren mit schwarzen ... 0.5000 2 3469 0 0 26.08.05 00:00
7448 Wenn man das Liedchen zu hoch anfängt, so ... 0.0000 2 3469 0 0 26.08.05 00:00
7449 Der Wind gehört der Herrschaft. ... 0.0000 1 3469 0 0 26.08.05 00:00
7450 Die Katze hat bald vergessen, daß sie das Licht halten muß. ... -0.5385 13 3469 0 0 26.08.05 00:00

[Favoriten] [Punkte] [Bewertungen] [Aufrufe] [Mails] [Kommentare] [Datum]

Seite 149 von 349 |< · < · [1] [2] [3] [4] [5] [6] [7] [8] [9] [10] [11] [12] [13] [14] [15] [16] [17] [18] [19] [20] [21] [22] [23] [24] [25] [26] [27] [28] [29] [30] [31] [32] [33] [34] [35] [36] [37] [38] [39] [40] [41] [42] [43] [44] [45] [46] [47] [48] [49] [50] [51] [52] [53] [54] [55] [56] [57] [58] [59] [60] [61] [62] [63] [64] [65] [66] [67] [68] [69] [70] [71] [72] [73] [74] [75] [76] [77] [78] [79] [80] [81] [82] [83] [84] [85] [86] [87] [88] [89] [90] [91] [92] [93] [94] [95] [96] [97] [98] [99] [100] [101] [102] [103] [104] [105] [106] [107] [108] [109] [110] [111] [112] [113] [114] [115] [116] [117] [118] [119] [120] [121] [122] [123] [124] [125] [126] [127] [128] [129] [130] [131] [132] [133] [134] [135] [136] [137] [138] [139] [140] [141] [142] [143] [144] [145] [146] [147] [148] [149] [150] [151] [152] [153] [154] [155] [156] [157] [158] [159] [160] [161] [162] [163] [164] [165] [166] [167] [168] [169] [170] [171] [172] [173] [174] [175] [176] [177] [178] [179] [180] [181] [182] [183] [184] [185] [186] [187] [188] [189] [190] [191] [192] [193] [194] [195] [196] [197] [198] [199] [200] [201] [202] [203] [204] [205] [206] [207] [208] [209] [210] [211] [212] [213] [214] [215] [216] [217] [218] [219] [220] [221] [222] [223] [224] [225] [226] [227] [228] [229] [230] [231] [232] [233] [234] [235] [236] [237] [238] [239] [240] [241] [242] [243] [244] [245] [246] [247] [248] [249] [250] [251] [252] [253] [254] [255] [256] [257] [258] [259] [260] [261] [262] [263] [264] [265] [266] [267] [268] [269] [270] [271] [272] [273] [274] [275] [276] [277] [278] [279] [280] [281] [282] [283] [284] [285] [286] [287] [288] [289] [290] [291] [292] [293] [294] [295] [296] [297] [298] [299] [300] [301] [302] [303] [304] [305] [306] [307] [308] [309] [310] [311] [312] [313] [314] [315] [316] [317] [318] [319] [320] [321] [322] [323] [324] [325] [326] [327] [328] [329] [330] [331] [332] [333] [334] [335] [336] [337] [338] [339] [340] [341] [342] [343] [344] [345] [346] [347] [348] [349] · > · >|

Zuletzt gesucht